Regional Weather Roundup
Issued by NWS Charleston, SC

Current Version | Previous Version | Graphics & Text | Print | Product List | Glossary On
Versions: 1 2 3 4 5 6 7 8 9 10 11 12 13 14 15 16 17 18 19 20 21 22 23 24 25 26 27 28 29 30 31 32 33 34 35 36 37 38 39 40 41 42 43 44 45 46 47 48 49 50
000 ASUS42 KCHS 240227 RWRCHS Regional Weather Roundup National Weather Service Charleston SC 900 PM EST FRI FEB 23 2018 NOTE: "fair" indicates few or no clouds below 12,000 feet with no significant weather and/or obstructions to visibility. Not all stations are quality controlled. Use data with caution, especially dewpoint observations. SCZ027-030-031-034>040-042>050-240300- ...Southeast South Carolina... CITY SKY/WX TMP DP RH WIND PRES REMARKS N Charleston MOCLDY 67 65 93 S7 30.33F Waterfront Prk N/A 65 64 97 CALM 30.20R Mount Pleasant FAIR 64 64 100 CALM 30.34S Johns Island FAIR 66 66 100 CALM 30.34S Pinopolis N/A 66 63 88 VRB2 30.25S Moncks Corner MOCLDY 63 61 94 CALM 30.33F Summerville FAIR 64 63 94 CALM 30.34F Beaufort MCAS FAIR 67 65 93 S3 30.33S Beaufort Arpt FAIR 63 63 100 CALM 30.32F Hilton Head Is FAIR 64 63 94 CALM 30.33F Walterboro FAIR 63 63 100 SE3 30.34S Allendale FAIR 66 63 88 SE5 30.31S ...Southern Midlands and Pee Dee... CITY SKY/WX TMP DP RH WIND PRES REMARKS Georgetown CLOUDY 63 63 100 S5 30.35S Kingstree FAIR 64 61 88 SE3 30.33F Orangeburg FAIR 68 61 78 S8 30.32R Barnwell N/A 70 64 83 CALM 30.31F Aiken FAIR 59 55 88 CALM 30.34F Manning FAIR 64 41 42 MISG 30.33F Columbia FAIR 65 59 81 CALM 30.30S Sumter FAIR 68 59 73 S12 30.29S Florence FAIR 67 63 87 S6 30.32F Myrtle Beach CLOUDY 66 63 90 S8 30.35F N Myrtle Beach CLOUDY 65 63 93 S7 30.34F $$ GAZ063-065-086>088-099>101-113>116-118-119-134>141-150-240300- ...Southeast Georgia... CITY SKY/WX TMP DP RH WIND PRES REMARKS Savannah Arpt FAIR 67 64 90 SE5 30.33S Hunter AAF FAIR 67 63 87 SE3 30.30F Fort Stewart FAIR 65 62 92 SE5 30.30F Statesboro FAIR 68 60 76 S3 30.32S Sylvania FAIR 67 64 90 CALM 30.32S Claxton FAIR 67 64 89 CALM 30.31F ...CSRA, Central and far Southeast Georgia... CITY SKY/WX TMP DP RH WIND PRES REMARKS Thomson FAIR 61 58 88 SE5 30.35S Augusta-Bush FAIR 61 57 87 CALM 30.29S Augusta-Daniel FAIR 72 58 61 E3 30.31S Swainsboro FAIR 70 63 78 S7 30.31S Vidalia FAIR 70 64 83 SE5 30.31S Eastman FAIR 65 54 68 CALM 30.30S Hazlehurst FAIR 71 60 68 SE6 30.29S Alma FAIR 71 63 75 SE5 30.30R Waycross FAIR 69 65 85 SE6 30.30S Jesup FAIR 66 63 88 CALM 30.32S Baxley FAIR 66 66 100 SE3 30.30S Brunswick FAIR 64 61 88 SE3 30.32F Saint Simons FAIR 66 64 93 E3 30.32S $$ SCZ027-028-034-036>038-045-046-048>050-GAZ119-141-240300- ...Lake and Supplemental Coastal Observations... STATION/POSITION TIME TEMP WIND PRES WAVE SWELL AIR SEA DIR/SP/G HT/PER HT/PER/DIR (UTC) (F) (DEG/KT/KT) (MB) (FT/S) (FT/S/D) Winyah Bay 0145 66 190/ 4 1028.0S Lake Murray 0150 66 CALM 1025.4S ACE Basin NERRS 0145 65 CALM 1027.0S Fort Pulaski 0200 66 64 140/ 3/ 4 1027.1 Sapelo Island 0200 65 110/ 4 1027.0 $$ ANZ835-935-AMZ111-154-330-350-352-354-370-450-454-472-240300- ...C-MAN and Buoy Observations... STATION/POSITION TIME TEMP WIND PRES WAVE SWELL AIR SEA DIR/SP/G HT/PER HT/PER/DIR (UTC) (F) (DEG/KT/KT) (MB) (FT/S) (FT/S/D) Buoy 41004 0210 68 69 160/ 6/ 8 1027.2 Buoy 41008 0150 64 60 130/ 6/ 8 1026.7F 3/ 9 3/130/ 9 Folly Beach CMAN 0200 65 140/ 5/ 5 1027.7F Capers Nearshore 0208 61 64 140/ 4/ 8 1027.0F Fripp Nearshore 0208 60 62 CALM / 2 1025.6F STATION/POSITION TIME TEMP WIND PRES WAVE SWELL AIR SEA DIR/SP/G HT/PER HT/PER/DIR (UTC) (F) (DEG/KT/KT) (MB) (FT/S) (FT/S/D) 5E St. Marys GA 0200 65 N/A 3/ 9 2/120/11 Frying Pan Buoy 0210 70 70 190/ 10/ 12 1027.7 Buoy 41025 0210 71 73 200/ 10/ 14 1028.2 Cape Lookout NC 0200 170/ 5/ 6 1028.1F Buoy 41002 0150 72 73 160/ 6/ 8 1028.9F 5/10 5/100/10 Buoy 41010 NOT AVBL St Augustine FL 0200 69 69 100/ 8/ 9 1026.5F $$

USA.gov is the U.S. government's official web portal to all federal, state and local government web resources and services.